Time,TemperatureF,DewpointF,PressureIn,WindDirection,WindDirectionDegrees,WindSpeedMPH,WindSpeedGustMPH,Humidity,HourlyPrecipIn,Conditions,Clouds,dailyrainin,SoftwareType,DateUTC
2013-02-04 00:00:00,17.6,17.6,29.23,SW,228,0.0,0.0,100,0.00,,---,0.00,VWS V14.00,2013-02-04 05:00:00,
2013-02-04 00:01:00,17.6,17.6,29.23,SW,228,0.0,0.0,100,0.00,,---,0.00,VWS V14.00,2013-02-04 05:01:00,
2013-02-04 00:03:00,17.6,17.6,29.23,SSW,211,0.0,0.0,100,0.00,,---,0.00,VWS V14.00,2013-02-04 05:03:00,
2013-02-04 00:08:00,17.8,17.8,29.23,SSW,211,0.0,0.0,100,0.00,,---,0.00,VWS V14.00,2013-02-04 05:08:00,
2013-02-04 00:13:00,17.8,17.8,29.23,WSW,254,0.0,0.0,100,0.00,,---,0.00,VWS V14.00,2013-02-04 05:13:00,
2013-02-04 00:18:00,17.6,17.6,29.23,SW,220,0.0,0.0,100,0.00,,---,0.00,VWS V14.00,2013-02-04 05:18:00,
2013-02-04 00:23:00,17.4,17.4,29.23,SW,220,0.0,0.0,100,0.00,,---,0.00,VWS V14.00,2013-02-04 05:23:00,
2013-02-04 00:28:00,17.2,17.2,29.23,SW,220,0.0,0.0,100,0.00,,---,0.00,VWS V14.00,2013-02-04 05:28:00,
2013-02-04 00:33:00,17.1,17.1,29.23,SW,220,0.0,0.0,100,0.00,,---,0.00,VWS V14.00,2013-02-04 05:33:00,
2013-02-04 00:38:00,16.9,16.9,29.23,SW,220,0.0,0.0,100,0.00,,---,0.00,VWS V14.00,2013-02-04 05:38:00,
2013-02-04 00:43:00,17.1,17.1,29.23,SW,220,0.0,0.0,100,0.00,,---,0.00,VWS V14.00,2013-02-04 05:43:00,
2013-02-04 00:48:00,17.4,17.4,29.23,SW,220,0.0,0.0,100,0.00,,---,0.00,VWS V14.00,2013-02-04 05:48:00,
2013-02-04 00:53:00,17.8,17.8,29.23,SW,220,0.0,0.0,100,0.00,,---,0.00,VWS V14.00,2013-02-04 05:53:00,
2013-02-04 00:58:00,17.8,17.8,29.23,SW,220,0.0,0.0,100,0.00,,---,0.00,VWS V14.00,2013-02-04 05:58:00,
2013-02-04 01:03:00,17.8,17.8,29.23,SW,220,0.0,0.0,100,0.00,,---,0.00,VWS V14.00,2013-02-04 06:03:00,
2013-02-04 01:08:00,17.8,17.8,29.23,SW,220,0.0,0.0,100,0.00,,---,0.00,VWS V14.00,2013-02-04 06:08:00,
2013-02-04 01:13:00,17.8,17.8,29.23,SW,220,0.0,0.0,100,0.00,,---,0.00,VWS V14.00,2013-02-04 06:13:00,
2013-02-04 01:18:00,17.8,17.8,29.23,SW,220,0.0,0.0,100,0.00,,---,0.00,VWS V14.00,2013-02-04 06:18:00,
2013-02-04 01:23:00,17.8,17.8,29.23,SW,220,0.0,0.0,100,0.00,,---,0.00,VWS V14.00,2013-02-04 06:23:00,
2013-02-04 01:28:00,18.0,18.0,29.23,SW,220,0.0,0.0,100,0.00,,---,0.00,VWS V14.00,2013-02-04 06:28:00,
2013-02-04 01:33:00,18.1,18.1,29.23,SW,220,0.0,0.0,100,0.00,,---,0.00,VWS V14.00,2013-02-04 06:33:00,
2013-02-04 01:38:00,18.3,18.3,29.23,SW,216,0.0,0.0,100,0.00,,---,0.00,VWS V14.00,2013-02-04 06:38:00,
2013-02-04 01:43:00,18.1,18.1,29.23,SW,216,0.0,0.0,100,0.00,,---,0.00,VWS V14.00,2013-02-04 06:43:00,
2013-02-04 01:48:00,18.1,18.1,29.23,SW,216,0.0,0.0,100,0.00,,---,0.00,VWS V14.00,2013-02-04 06:48:00,
2013-02-04 01:53:00,18.1,18.1,29.23,SW,216,0.0,0.0,100,0.00,,---,0.00,VWS V14.00,2013-02-04 06:53:00,
2013-02-04 01:58:00,17.6,17.6,29.23,SW,216,0.0,0.0,100,0.00,,---,0.00,VWS V14.00,2013-02-04 06:58:00,
2013-02-04 02:03:00,17.6,17.6,29.23,SW,216,0.0,0.0,100,0.00,,---,0.00,VWS V14.00,2013-02-04 07:03:00,
2013-02-04 02:08:00,17.1,17.1,29.23,SW,216,0.0,0.0,100,0.00,,---,0.00,VWS V14.00,2013-02-04 07:08:00,
2013-02-04 02:13:00,17.1,17.1,29.23,SW,216,0.0,0.0,100,0.00,,---,0.00,VWS V14.00,2013-02-04 07:13:00,
2013-02-04 02:18:00,17.1,17.1,29.23,SW,216,0.0,0.0,100,0.00,,---,0.00,VWS V14.00,2013-02-04 07:18:00,
2013-02-04 02:23:00,17.1,17.1,29.23,SW,216,0.0,0.0,100,0.00,,---,0.00,VWS V14.00,2013-02-04 07:23:00,
2013-02-04 02:28:00,18.1,18.1,29.23,SW,216,0.0,0.0,100,0.00,,---,0.00,VWS V14.00,2013-02-04 07:28:00,
2013-02-04 02:33:00,18.5,18.5,29.23,SW,216,0.0,0.0,100,0.00,,---,0.00,VWS V14.00,2013-02-04 07:33:00,
2013-02-04 02:38:00,18.5,18.5,29.23,SW,216,0.0,0.0,100,0.00,,---,0.00,VWS V14.00,2013-02-04 07:38:00,
2013-02-04 02:43:00,19.2,19.2,29.23,SW,216,0.0,0.0,100,0.00,,---,0.00,VWS V14.00,2013-02-04 07:43:00,
2013-02-04 02:48:00,19.2,19.2,29.23,SW,216,0.0,0.0,100,0.00,,---,0.00,VWS V14.00,2013-02-04 07:48:00,
2013-02-04 02:53:00,19.6,19.6,29.23,SSW,200,0.0,0.0,100,0.00,,---,0.00,VWS V14.00,2013-02-04 07:53:00,
2013-02-04 02:58:00,19.8,19.8,29.23,SSW,200,0.0,0.0,100,0.00,,---,0.00,VWS V14.00,2013-02-04 07:58:00,
2013-02-04 03:03:00,19.8,19.8,29.23,SSW,200,0.0,0.0,100,0.00,,---,0.00,VWS V14.00,2013-02-04 08:03:00,
2013-02-04 03:08:00,19.8,19.8,29.23,SW,214,0.0,0.0,100,0.00,,---,0.00,VWS V14.00,2013-02-04 08:08:00,
2013-02-04 03:13:00,19.9,19.9,29.21,SSW,208,0.0,0.0,100,0.00,,---,0.00,VWS V14.00,2013-02-04 08:13:00,
2013-02-04 03:18:00,20.3,20.3,29.21,SSW,206,0.0,0.0,100,0.00,,---,0.00,VWS V14.00,2013-02-04 08:18:00,
2013-02-04 03:23:00,20.3,20.3,29.21,SW,221,0.0,0.0,100,0.00,,---,0.00,VWS V14.00,2013-02-04 08:23:00,
2013-02-04 03:28:00,20.5,20.5,29.23,SW,221,0.0,0.0,100,0.00,,---,0.00,VWS V14.00,2013-02-04 08:28:00,
2013-02-04 03:33:00,20.5,20.5,29.23,SSW,196,0.0,0.0,100,0.00,,---,0.00,VWS V14.00,2013-02-04 08:33:00,
2013-02-04 03:38:00,20.7,20.7,29.21,SW,217,0.0,0.0,100,0.00,,---,0.00,VWS V14.00,2013-02-04 08:38:00,
2013-02-04 03:42:00,20.5,20.5,29.21,SW,217,0.0,0.0,100,0.00,,---,0.00,VWS V14.00,2013-02-04 08:42:00,
2013-02-04 03:47:00,20.3,20.3,29.21,SW,231,0.0,0.0,100,0.00,,---,0.00,VWS V14.00,2013-02-04 08:47:00,
2013-02-04 03:52:00,20.3,20.3,29.21,South,189,0.0,0.0,100,0.00,,---,0.00,VWS V14.00,2013-02-04 08:52:00,
2013-02-04 03:57:00,20.3,20.3,29.21,SSW,197,0.0,0.0,100,0.00,,---,0.00,VWS V14.00,2013-02-04 08:57:00,
2013-02-04 04:02:00,19.9,19.9,29.21,SSW,197,0.0,0.0,100,0.00,,---,0.00,VWS V14.00,2013-02-04 09:02:00,
2013-02-04 04:07:00,19.6,19.6,29.21,SSW,197,0.0,0.0,100,0.00,,---,0.00,VWS V14.00,2013-02-04 09:07:00,
2013-02-04 04:12:00,19.2,19.2,29.21,SSW,197,0.0,0.0,100,0.00,,---,0.00,VWS V14.00,2013-02-04 09:12:00,
2013-02-04 04:17:00,19.2,19.2,29.21,SSW,197,0.0,0.0,100,0.00,,---,0.00,VWS V14.00,2013-02-04 09:17:00,
2013-02-04 04:22:00,19.0,19.0,29.21,SSW,197,0.0,0.0,100,0.00,,---,0.00,VWS V14.00,2013-02-04 09:22:00,
2013-02-04 04:27:00,19.0,19.0,29.21,SSW,197,0.0,0.0,100,0.00,,---,0.00,VWS V14.00,2013-02-04 09:27:00,
2013-02-04 04:32:00,19.0,19.0,29.21,SSW,197,0.0,0.0,100,0.00,,---,0.00,VWS V14.00,2013-02-04 09:32:00,
2013-02-04 04:37:00,19.0,19.0,29.21,SSW,198,0.0,0.0,100,0.00,,---,0.00,VWS V14.00,2013-02-04 09:37:00,
2013-02-04 04:42:00,19.2,19.2,29.21,SSW,198,0.0,0.0,100,0.00,,---,0.00,VWS V14.00,2013-02-04 09:42:00,
2013-02-04 04:47:00,19.2,19.2,29.21,SSW,198,0.0,0.0,100,0.00,,---,0.00,VWS V14.00,2013-02-04 09:47:00,
2013-02-04 04:52:00,19.6,19.6,29.21,SW,225,0.0,0.0,100,0.00,,---,0.00,VWS V14.00,2013-02-04 09:52:00,
2013-02-04 04:57:00,19.6,19.6,29.21,SSW,211,0.0,0.0,100,0.00,,---,0.00,VWS V14.00,2013-02-04 09:57:00,
2013-02-04 05:02:00,19.8,19.8,29.21,SSW,211,0.0,0.0,100,0.00,,---,0.00,VWS V14.00,2013-02-04 10:02:00,
2013-02-04 05:07:00,19.9,19.9,29.21,SSW,211,0.0,0.0,100,0.00,,---,0.00,VWS V14.00,2013-02-04 10:07:00,
2013-02-04 05:12:00,19.9,19.9,29.21,SSW,211,0.0,0.0,100,0.00,,---,0.00,VWS V14.00,2013-02-04 10:12:00,
2013-02-04 05:17:00,19.8,19.8,29.21,SSW,211,0.0,0.0,100,0.00,,---,0.00,VWS V14.00,2013-02-04 10:17:00,
2013-02-04 05:22:00,19.9,19.9,29.21,SSW,207,0.0,0.0,100,0.00,,---,0.00,VWS V14.00,2013-02-04 10:22:00,
2013-02-04 05:27:00,20.3,20.3,29.21,SSW,200,0.0,0.0,100,0.00,,---,0.00,VWS V14.00,2013-02-04 10:27:00,
2013-02-04 05:32:00,20.3,20.3,29.21,SSW,212,0.0,0.0,100,0.00,,---,0.00,VWS V14.00,2013-02-04 10:32:00,
2013-02-04 05:37:00,20.3,20.3,29.21,SSW,207,0.0,0.0,100,0.00,,---,0.00,VWS V14.00,2013-02-04 10:37:00,
2013-02-04 05:42:00,20.3,20.3,29.21,SSW,212,0.0,0.0,100,0.00,,---,0.00,VWS V14.00,2013-02-04 10:42:00,
2013-02-04 05:47:00,20.3,20.3,29.21,SSW,203,3.6,3.6,100,0.00,,---,0.00,VWS V14.00,2013-02-04 10:47:00,
2013-02-04 05:52:00,20.5,20.5,29.21,SSW,197,0.0,0.0,100,0.00,,---,0.00,VWS V14.00,2013-02-04 10:52:00,
2013-02-04 05:57:00,20.7,20.7,29.21,SSW,202,2.7,2.7,100,0.00,,---,0.00,VWS V14.00,2013-02-04 10:57:00,
2013-02-04 06:02:00,20.7,20.7,29.21,SW,214,4.9,4.9,100,0.00,,---,0.00,VWS V14.00,2013-02-04 11:02:00,
2013-02-04 06:07:00,20.8,20.8,29.21,SSW,210,0.0,0.0,100,0.00,,---,0.00,VWS V14.00,2013-02-04 11:07:00,
2013-02-04 06:12:00,20.8,20.8,29.21,SSW,208,3.6,3.6,100,0.00,,---,0.00,VWS V14.00,2013-02-04 11:12:00,
2013-02-04 06:17:00,21.0,21.0,29.21,SSW,201,3.1,3.1,100,0.00,,---,0.00,VWS V14.00,2013-02-04 11:17:00,
2013-02-04 06:22:00,21.2,21.2,29.18,SW,219,3.1,3.1,100,0.00,,---,0.00,VWS V14.00,2013-02-04 11:22:00,
2013-02-04 06:27:00,21.4,21.4,29.18,SSW,194,2.7,2.7,100,0.00,,---,0.00,VWS V14.00,2013-02-04 11:27:00,
2013-02-04 06:32:00,21.6,21.6,29.18,SE,124,2.2,3.1,100,0.00,,---,0.00,VWS V14.00,2013-02-04 11:32:00,
2013-02-04 06:37:00,21.7,21.7,29.18,SE,124,2.2,2.2,100,0.00,,---,0.00,VWS V14.00,2013-02-04 11:37:00,
2013-02-04 06:42:00,21.7,21.7,29.18,SW,222,0.0,0.0,100,0.00,,---,0.00,VWS V14.00,2013-02-04 11:42:00,
2013-02-04 06:47:00,21.6,21.6,29.18,SSE,166,0.0,0.0,100,0.00,,---,0.00,VWS V14.00,2013-02-04 11:47:00,
2013-02-04 06:52:00,21.4,21.4,29.18,SSW,202,2.7,2.7,100,0.00,,---,0.00,VWS V14.00,2013-02-04 11:52:00,
2013-02-04 06:57:00,21.4,21.4,29.18,SSW,195,3.1,3.1,100,0.00,,---,0.00,VWS V14.00,2013-02-04 11:57:00,
2013-02-04 07:02:00,21.4,21.4,29.18,East,98,5.4,5.4,100,0.00,,---,0.00,VWS V14.00,2013-02-04 12:02:00,
2013-02-04 07:07:00,21.4,21.4,29.18,SSW,199,5.8,5.8,100,0.00,,---,0.00,VWS V14.00,2013-02-04 12:07:00,
2013-02-04 07:12:00,21.2,21.2,29.18,SSW,210,4.5,4.5,100,0.00,,---,0.00,VWS V14.00,2013-02-04 12:12:00,
2013-02-04 07:17:00,21.2,21.2,29.18,SSW,202,0.0,0.0,100,0.00,,---,0.00,VWS V14.00,2013-02-04 12:17:00,
2013-02-04 07:22:00,21.4,21.4,29.18,SSW,211,0.0,0.0,100,0.00,,---,0.00,VWS V14.00,2013-02-04 12:22:00,
2013-02-04 07:27:00,21.4,21.4,29.18,SSW,206,2.7,2.7,100,0.00,,---,0.00,VWS V14.00,2013-02-04 12:27:00,
2013-02-04 07:32:00,21.4,21.4,29.18,SSW,206,2.7,2.7,100,0.00,,---,0.00,VWS V14.00,2013-02-04 12:32:00,
2013-02-04 07:37:00,21.4,21.4,29.18,SW,218,0.0,0.0,100,0.00,,---,0.00,VWS V14.00,2013-02-04 12:37:00,
2013-02-04 07:42:00,21.6,21.6,29.15,SSW,208,0.0,0.0,100,0.00,,---,0.00,VWS V14.00,2013-02-04 12:42:00,
2013-02-04 07:47:00,21.6,21.6,29.15,SSW,208,0.0,0.0,100,0.00,,---,0.00,VWS V14.00,2013-02-04 12:47:00,
2013-02-04 07:52:00,21.7,21.7,29.15,SE,138,0.0,0.0,100,0.00,,---,0.00,VWS V14.00,2013-02-04 12:52:00,
2013-02-04 07:57:00,21.7,21.7,29.15,SE,138,0.0,0.0,100,0.00,,---,0.00,VWS V14.00,2013-02-04 12:57:00,
2013-02-04 08:02:00,21.9,21.9,29.15,North,353,2.7,2.7,100,0.00,,---,0.00,VWS V14.00,2013-02-04 13:02:00,
2013-02-04 08:07:00,22.1,22.1,29.12,SW,219,0.0,0.0,100,0.00,,---,0.00,VWS V14.00,2013-02-04 13:07:00,
2013-02-04 08:12:00,22.3,22.3,29.12,SW,218,3.6,3.6,100,0.00,,---,0.00,VWS V14.00,2013-02-04 13:12:00,
2013-02-04 08:17:00,22.3,22.3,29.12,SW,236,2.7,2.7,100,0.00,,---,0.00,VWS V14.00,2013-02-04 13:17:00,
2013-02-04 08:22:00,22.6,22.6,29.15,SSW,210,2.7,2.7,100,0.00,,---,0.00,VWS V14.00,2013-02-04 13:22:00,
2013-02-04 08:27:00,23.2,23.2,29.15,South,179,4.0,4.0,100,0.00,,---,0.00,VWS V14.00,2013-02-04 13:27:00,
2013-02-04 08:32:00,23.5,23.5,29.15,SW,219,2.7,2.7,100,0.00,,---,0.00,VWS V14.00,2013-02-04 13:32:00,
2013-02-04 08:37:00,23.9,23.9,29.12,SSW,208,7.6,7.6,100,0.00,,---,0.00,VWS V14.00,2013-02-04 13:37:00,
2013-02-04 08:42:00,24.3,24.3,29.12,SW,226,2.7,2.7,100,0.00,,---,0.00,VWS V14.00,2013-02-04 13:42:00,
2013-02-04 08:47:00,24.4,24.4,29.12,SSW,206,5.4,5.4,100,0.00,,---,0.00,VWS V14.00,2013-02-04 13:47:00,
2013-02-04 08:52:00,24.6,24.6,29.12,SSW,206,5.4,5.4,100,0.00,,---,0.00,VWS V14.00,2013-02-04 13:52:00,
2013-02-04 08:57:00,24.8,24.8,29.12,ESE,106,3.1,3.1,100,0.00,,---,0.00,VWS V14.00,2013-02-04 13:57:00,
2013-02-04 09:02:00,24.8,24.8,29.12,SSW,208,3.6,3.6,100,0.00,,---,0.00,VWS V14.00,2013-02-04 14:02:00,
2013-02-04 09:07:00,25.3,25.3,29.12,SSW,208,3.6,3.6,100,0.00,,---,0.00,VWS V14.00,2013-02-04 14:07:00,
2013-02-04 09:12:00,25.7,25.7,29.12,SSW,211,5.4,5.4,100,0.00,,---,0.00,VWS V14.00,2013-02-04 14:12:00,
2013-02-04 09:17:00,25.7,25.7,29.12,SSW,211,5.4,5.4,100,0.00,,---,0.00,VWS V14.00,2013-02-04 14:17:00,
2013-02-04 09:22:00,26.1,26.1,29.09,South,178,10.1,10.1,100,0.00,,---,0.00,VWS V14.00,2013-02-04 14:22:00,
2013-02-04 09:27:00,26.1,26.1,29.09,SSW,196,5.8,5.8,100,0.00,,---,0.00,VWS V14.00,2013-02-04 14:27:00,
2013-02-04 09:32:00,26.1,26.1,29.09,SW,214,5.4,5.4,100,0.00,,---,0.00,VWS V14.00,2013-02-04 14:32:00,
2013-02-04 09:37:00,26.1,26.1,29.09,SW,220,12.8,12.8,100,0.00,,---,0.00,VWS V14.00,2013-02-04 14:37:00,
2013-02-04 09:42:00,26.1,26.1,29.09,SW,220,12.8,12.8,100,0.00,,---,0.00,VWS V14.00,2013-02-04 14:42:00,
2013-02-04 09:47:00,26.2,26.2,29.09,SW,220,12.8,12.8,100,0.00,,---,0.00,VWS V14.00,2013-02-04 14:47:00,
2013-02-04 09:52:00,26.4,26.4,29.09,SE,143,5.4,5.4,100,0.00,,---,0.00,VWS V14.00,2013-02-04 14:52:00,
2013-02-04 09:57:00,26.6,26.6,29.09,SE,143,5.4,5.4,100,0.00,,---,0.00,VWS V14.00,2013-02-04 14:57:00,
2013-02-04 10:02:00,27.0,27.0,29.09,SSW,201,5.8,5.8,100,0.00,,---,0.00,VWS V14.00,2013-02-04 15:02:00,
2013-02-04 10:07:00,27.1,27.1,29.09,SSW,201,5.8,5.8,100,0.00,,---,0.00,VWS V14.00,2013-02-04 15:07:00,
2013-02-04 10:12:00,27.0,27.0,29.09,SSW,201,5.8,5.8,100,0.00,,---,0.00,VWS V14.00,2013-02-04 15:12:00,
2013-02-04 10:17:00,27.1,27.1,29.09,SSW,210,10.5,10.5,100,0.00,,---,0.00,VWS V14.00,2013-02-04 15:17:00,
2013-02-04 10:22:00,27.1,27.1,29.09,SSW,210,10.5,10.5,100,0.00,,---,0.00,VWS V14.00,2013-02-04 15:22:00,
2013-02-04 10:27:00,27.1,27.1,29.09,SSW,208,10.5,10.5,100,0.00,,---,0.00,VWS V14.00,2013-02-04 15:27:00,
2013-02-04 10:32:00,27.3,27.3,29.09,SSW,209,3.6,3.6,100,0.00,,---,0.00,VWS V14.00,2013-02-04 15:32:00,
2013-02-04 10:37:00,27.7,27.7,29.09,SSW,209,3.6,3.6,100,0.00,,---,0.00,VWS V14.00,2013-02-04 15:37:00,
2013-02-04 10:42:00,27.9,27.9,29.09,SSW,197,6.3,6.3,100,0.00,,---,0.00,VWS V14.00,2013-02-04 15:42:00,
2013-02-04 10:47:00,27.9,27.9,29.09,SW,223,3.1,3.1,100,0.00,,---,0.00,VWS V14.00,2013-02-04 15:47:00,
2013-02-04 10:52:00,27.9,27.9,29.09,WSW,239,5.8,5.8,100,0.00,,---,0.00,VWS V14.00,2013-02-04 15:52:00,
2013-02-04 10:57:00,28.9,28.9,29.06,SW,216,5.4,5.4,100,0.00,,---,0.00,VWS V14.00,2013-02-04 15:57:00,
2013-02-04 11:02:00,29.7,29.7,29.06,SW,216,5.4,5.4,100,0.00,,---,0.00,VWS V14.00,2013-02-04 16:02:00,
2013-02-04 11:07:00,29.7,29.7,29.06,SSE,152,5.4,5.4,100,0.00,,---,0.00,VWS V14.00,2013-02-04 16:07:00,
2013-02-04 11:12:00,29.8,29.8,29.06,SE,135,3.1,3.1,100,0.00,,---,0.00,VWS V14.00,2013-02-04 16:12:00,
2013-02-04 11:17:00,29.8,29.8,29.06,SSW,201,3.6,3.6,100,0.00,,---,0.00,VWS V14.00,2013-02-04 16:17:00,
2013-02-04 11:22:00,30.6,30.6,29.06,SW,224,3.1,3.1,100,0.00,,---,0.00,VWS V14.00,2013-02-04 16:22:00,
2013-02-04 11:27:00,30.7,30.7,29.06,SW,224,3.1,3.1,100,0.00,,---,0.00,VWS V14.00,2013-02-04 16:27:00,
2013-02-04 11:32:00,30.9,30.9,29.06,WSW,258,4.0,4.0,100,0.00,,---,0.00,VWS V14.00,2013-02-04 16:32:00,
2013-02-04 11:37:00,30.6,30.6,29.06,South,191,5.8,5.8,100,0.00,,---,0.00,VWS V14.00,2013-02-04 16:37:00,
2013-02-04 11:42:00,30.6,30.6,29.06,South,191,5.8,5.8,100,0.00,,---,0.00,VWS V14.00,2013-02-04 16:42:00,
2013-02-04 11:47:00,30.7,30.7,29.06,South,188,5.8,5.8,100,0.00,,---,0.00,VWS V14.00,2013-02-04 16:47:00,
2013-02-04 11:52:00,31.1,31.1,29.06,SSW,205,5.4,5.4,100,0.00,,---,0.00,VWS V14.00,2013-02-04 16:52:00,
2013-02-04 11:57:00,31.6,31.6,29.06,SSW,205,5.4,5.4,100,0.00,,---,0.00,VWS V14.00,2013-02-04 16:57:00,
2013-02-04 12:02:00,32.4,32.4,29.06,SSW,201,3.1,3.1,100,0.00,,---,0.00,VWS V14.00,2013-02-04 17:02:00,
2013-02-04 12:07:00,32.4,32.4,29.06,SSW,201,3.1,3.1,100,0.00,,---,0.00,VWS V14.00,2013-02-04 17:07:00,
2013-02-04 12:12:00,32.7,32.7,29.06,WSW,243,5.4,5.4,100,0.00,,---,0.00,VWS V14.00,2013-02-04 17:12:00,
2013-02-04 12:17:00,32.9,32.9,29.06,SW,221,6.7,6.7,100,0.00,,---,0.00,VWS V14.00,2013-02-04 17:17:00,
2013-02-04 12:22:00,33.1,33.1,29.06,SSW,212,3.1,3.1,100,0.00,,---,0.00,VWS V14.00,2013-02-04 17:22:00,
2013-02-04 12:27:00,33.3,33.3,29.06,SSW,193,8.7,8.7,100,0.00,,---,0.00,VWS V14.00,2013-02-04 17:27:00,
2013-02-04 12:32:00,33.3,33.3,29.06,SSW,205,4.0,4.9,100,0.00,,---,0.00,VWS V14.00,2013-02-04 17:32:00,
2013-02-04 12:37:00,32.7,32.7,29.03,SSW,209,7.2,7.2,100,0.00,,---,0.00,VWS V14.00,2013-02-04 17:37:00,
2013-02-04 12:42:00,32.5,32.5,29.03,SSW,200,8.3,8.3,100,0.00,,---,0.00,VWS V14.00,2013-02-04 17:42:00,
2013-02-04 12:47:00,32.0,32.0,29.03,SSW,200,8.3,8.3,100,0.00,,---,0.00,VWS V14.00,2013-02-04 17:47:00,
2013-02-04 12:52:00,32.0,32.0,29.03,SW,214,4.9,5.4,100,0.00,,---,0.00,VWS V14.00,2013-02-04 17:52:00,
2013-02-04 12:57:00,32.0,32.0,29.03,WSW,240,4.0,4.0,100,0.00,,---,0.00,VWS V14.00,2013-02-04 17:57:00,
2013-02-04 13:02:00,32.0,32.0,29.03,WSW,242,4.0,4.0,100,0.00,,---,0.00,VWS V14.00,2013-02-04 18:02:00,
2013-02-04 13:07:00,32.2,32.2,29.00,SSW,205,6.7,6.7,100,0.00,,---,0.00,VWS V14.00,2013-02-04 18:07:00,
2013-02-04 13:12:00,32.9,32.9,29.00,SW,216,3.1,3.1,100,0.00,,---,0.00,VWS V14.00,2013-02-04 18:12:00,
2013-02-04 13:17:00,33.3,33.3,29.00,South,177,2.7,2.7,100,0.00,,---,0.00,VWS V14.00,2013-02-04 18:17:00,
2013-02-04 13:22:00,33.4,33.4,29.00,WSW,250,2.7,2.7,100,0.00,,---,0.00,VWS V14.00,2013-02-04 18:22:00,
2013-02-04 13:27:00,33.4,33.4,29.00,WSW,250,2.7,2.7,100,0.00,,---,0.00,VWS V14.00,2013-02-04 18:27:00,
2013-02-04 13:32:00,33.4,33.4,29.00,WSW,250,2.7,2.7,100,0.00,,---,0.00,VWS V14.00,2013-02-04 18:32:00,
2013-02-04 13:37:00,33.8,33.8,29.00,SSW,208,4.0,4.0,100,0.00,,---,0.00,VWS V14.00,2013-02-04 18:37:00,
2013-02-04 13:42:00,33.8,33.8,29.00,SSW,207,3.6,5.8,100,0.00,,---,0.00,VWS V14.00,2013-02-04 18:42:00,
2013-02-04 13:47:00,34.3,34.3,29.00,South,177,7.6,7.6,100,0.00,,---,0.00,VWS V14.00,2013-02-04 18:47:00,
2013-02-04 13:52:00,34.3,34.3,28.97,SW,218,7.6,7.6,100,0.00,,---,0.00,VWS V14.00,2013-02-04 18:52:00,
2013-02-04 13:57:00,34.3,34.3,28.97,SSW,205,3.6,3.6,100,0.00,,---,0.00,VWS V14.00,2013-02-04 18:57:00,
2013-02-04 14:02:00,34.3,34.3,28.97,SSW,205,3.6,3.6,100,0.00,,---,0.00,VWS V14.00,2013-02-04 19:02:00,
2013-02-04 14:07:00,34.0,34.0,29.00,SSW,205,3.6,3.6,100,0.00,,---,0.00,VWS V14.00,2013-02-04 19:07:00,
2013-02-04 14:12:00,34.0,34.0,29.00,SW,233,2.7,2.7,100,0.00,,---,0.00,VWS V14.00,2013-02-04 19:12:00,
2013-02-04 14:17:00,34.2,34.2,29.00,SW,232,0.0,0.0,100,0.00,,---,0.00,VWS V14.00,2013-02-04 19:17:00,
2013-02-04 14:22:00,34.5,34.5,29.00,WNW,289,0.0,0.0,100,0.00,,---,0.00,VWS V14.00,2013-02-04 19:22:00,
2013-02-04 14:27:00,34.5,34.5,29.00,WNW,289,0.0,0.0,100,0.00,,---,0.00,VWS V14.00,2013-02-04 19:27:00,
2013-02-04 14:32:00,34.3,34.3,29.00,West,272,0.0,3.1,100,0.00,,---,0.00,VWS V14.00,2013-02-04 19:32:00,
2013-02-04 14:37:00,33.8,33.8,29.00,West,261,5.8,5.8,100,0.00,,---,0.00,VWS V14.00,2013-02-04 19:37:00,
2013-02-04 14:42:00,33.6,33.6,29.00,WSW,256,0.0,0.0,100,0.00,,---,0.00,VWS V14.00,2013-02-04 19:42:00,
2013-02-04 14:47:00,33.1,33.1,29.00,WSW,253,3.1,3.1,100,0.00,,---,0.00,VWS V14.00,2013-02-04 19:47:00,
2013-02-04 14:52:00,33.3,33.3,29.00,WSW,253,3.1,3.1,100,0.00,,---,0.00,VWS V14.00,2013-02-04 19:52:00,
2013-02-04 14:57:00,32.9,32.9,29.00,SW,221,0.0,0.0,100,0.00,,---,0.00,VWS V14.00,2013-02-04 19:57:00,
2013-02-04 15:02:00,32.9,32.9,29.00,SSW,193,4.0,4.0,100,0.00,,---,0.00,VWS V14.00,2013-02-04 20:02:00,
2013-02-04 15:07:00,32.7,32.7,29.00,West,272,3.6,3.6,100,0.00,,---,0.00,VWS V14.00,2013-02-04 20:07:00,
2013-02-04 15:12:00,32.7,32.7,29.00,SW,225,3.1,3.1,100,0.00,,---,0.00,VWS V14.00,2013-02-04 20:12:00,
2013-02-04 15:17:00,32.7,32.7,29.00,SW,232,3.6,3.6,100,0.00,,---,0.00,VWS V14.00,2013-02-04 20:17:00,
2013-02-04 15:22:00,32.7,32.7,29.00,WSW,258,0.0,0.0,100,0.00,,---,0.00,VWS V14.00,2013-02-04 20:22:00,
2013-02-04 15:27:00,32.5,32.5,29.00,WSW,245,2.7,2.7,100,0.00,,---,0.00,VWS V14.00,2013-02-04 20:27:00,
2013-02-04 15:32:00,32.4,32.4,29.00,WSW,245,2.7,2.7,100,0.00,,---,0.00,VWS V14.00,2013-02-04 20:32:00,
2013-02-04 15:37:00,32.4,32.4,29.00,SW,236,0.0,0.0,100,0.00,,---,0.00,VWS V14.00,2013-02-04 20:37:00,
2013-02-04 15:42:00,32.2,32.2,29.00,South,191,3.6,3.6,100,0.00,,---,0.00,VWS V14.00,2013-02-04 20:42:00,
2013-02-04 15:47:00,32.5,32.5,29.00,WSW,243,0.0,3.6,100,0.00,,---,0.00,VWS V14.00,2013-02-04 20:47:00,
2013-02-04 15:52:00,32.7,32.7,29.00,SW,222,0.0,0.0,100,0.00,,---,0.00,VWS V14.00,2013-02-04 20:52:00,
2013-02-04 15:57:00,32.9,32.9,29.00,SW,215,0.0,0.0,100,0.00,,---,0.00,VWS V14.00,2013-02-04 20:57:00,
2013-02-04 16:02:00,32.9,32.9,29.00,WSW,237,0.0,0.0,100,0.00,,---,0.00,VWS V14.00,2013-02-04 21:02:00,
2013-02-04 16:07:00,33.3,33.3,28.97,WSW,237,0.0,0.0,100,0.00,,---,0.00,VWS V14.00,2013-02-04 21:07:00,
2013-02-04 16:12:00,33.1,33.1,28.97,SW,234,0.0,0.0,100,0.00,,---,0.00,VWS V14.00,2013-02-04 21:12:00,
2013-02-04 16:17:00,33.1,33.1,28.97,SW,220,0.0,0.0,100,0.00,,---,0.00,VWS V14.00,2013-02-04 21:17:00,
2013-02-04 16:22:00,33.1,33.1,28.97,SSW,197,0.0,0.0,100,0.00,,---,0.00,VWS V14.00,2013-02-04 21:22:00,
2013-02-04 16:27:00,33.1,33.1,28.97,WSW,243,0.0,0.0,100,0.00,,---,0.00,VWS V14.00,2013-02-04 21:27:00,
2013-02-04 16:32:00,33.1,33.1,28.97,South,187,0.0,0.0,100,0.00,,---,0.00,VWS V14.00,2013-02-04 21:32:00,
2013-02-04 16:37:00,33.1,33.1,28.97,South,187,0.0,0.0,100,0.00,,---,0.00,VWS V14.00,2013-02-04 21:37:00,
2013-02-04 16:42:00,33.4,33.4,28.97,SW,218,0.0,0.0,100,0.00,,---,0.00,VWS V14.00,2013-02-04 21:42:00,
2013-02-04 16:47:00,33.6,33.6,28.97,SW,233,0.0,0.0,100,0.00,,---,0.00,VWS V14.00,2013-02-04 21:47:00,
2013-02-04 16:52:00,33.6,33.6,28.97,SW,233,0.0,0.0,100,0.00,,---,0.00,VWS V14.00,2013-02-04 21:52:00,
2013-02-04 16:57:00,33.8,33.8,28.97,SW,231,0.0,0.0,100,0.00,,---,0.00,VWS V14.00,2013-02-04 21:57:00,
2013-02-04 17:02:00,34.0,34.0,28.97,SW,231,0.0,0.0,100,0.00,,---,0.00,VWS V14.00,2013-02-04 22:02:00,
2013-02-04 17:07:00,34.0,34.0,28.97,SSW,197,0.0,0.0,100,0.00,,---,0.00,VWS V14.00,2013-02-04 22:07:00,
2013-02-04 17:12:00,34.2,34.2,28.97,SSW,210,0.0,0.0,100,0.00,,---,0.00,VWS V14.00,2013-02-04 22:12:00,
2013-02-04 17:17:00,34.2,34.2,28.97,WSW,238,3.1,3.1,100,0.00,,---,0.00,VWS V14.00,2013-02-04 22:17:00,
2013-02-04 17:26:00,34.3,34.3,28.97,West,276,6.3,6.3,100,0.00,,---,0.00,VWS V14.00,2013-02-04 22:26:00,
2013-02-04 17:31:00,34.3,34.3,28.97,WSW,244,5.8,6.3,100,0.00,,---,0.00,VWS V14.00,2013-02-04 22:31:00,
2013-02-04 17:36:00,34.3,34.3,28.97,SSW,210,4.9,8.1,100,0.00,,---,0.00,VWS V14.00,2013-02-04 22:36:00,
2013-02-04 17:41:00,34.5,34.5,28.97,SW,222,3.1,3.6,100,0.00,,---,0.00,VWS V14.00,2013-02-04 22:41:00,
2013-02-04 17:46:00,34.5,34.5,28.97,WSW,247,6.3,6.3,100,0.00,,---,0.00,VWS V14.00,2013-02-04 22:46:00,
2013-02-04 17:51:00,34.5,34.5,28.97,SW,234,3.6,5.4,100,0.00,,---,0.00,VWS V14.00,2013-02-04 22:51:00,
2013-02-04 17:56:00,34.3,34.3,28.97,West,273,4.9,4.9,100,0.00,,---,0.00,VWS V14.00,2013-02-04 22:56:00,
2013-02-04 18:01:00,34.3,34.3,28.97,WNW,283,4.0,5.8,100,0.00,,---,0.00,VWS V14.00,2013-02-04 23:01:00,
2013-02-04 18:06:00,34.3,34.3,28.97,WSW,237,4.0,4.0,100,0.00,,---,0.00,VWS V14.00,2013-02-04 23:06:00,
2013-02-04 18:11:00,34.3,34.3,28.97,West,267,4.0,4.0,100,0.00,,---,0.00,VWS V14.00,2013-02-04 23:11:00,
2013-02-04 18:16:00,34.3,34.3,28.97,West,265,2.7,3.1,100,0.00,,---,0.00,VWS V14.00,2013-02-04 23:16:00,
2013-02-04 18:21:00,34.3,34.3,28.97,West,267,2.7,4.0,100,0.00,,---,0.00,VWS V14.00,2013-02-04 23:21:00,
2013-02-04 18:26:00,34.3,34.3,28.97,West,274,0.0,3.1,100,0.00,,---,0.00,VWS V14.00,2013-02-04 23:26:00,
2013-02-04 18:31:00,34.3,34.3,28.97,West,261,4.9,4.9,100,0.00,,---,0.00,VWS V14.00,2013-02-04 23:31:00,
2013-02-04 18:36:00,34.3,34.3,29.00,West,272,2.2,2.2,100,0.00,,---,0.00,VWS V14.00,2013-02-04 23:36:00,
2013-02-04 18:41:00,34.3,34.3,29.00,West,274,3.6,4.9,100,0.00,,---,0.00,VWS V14.00,2013-02-04 23:41:00,
2013-02-04 18:46:00,34.3,34.3,29.00,West,281,4.5,4.5,100,0.00,,---,0.00,VWS V14.00,2013-02-04 23:46:00,
2013-02-04 18:51:00,34.3,34.3,29.00,West,259,4.0,4.0,100,0.00,,---,0.00,VWS V14.00,2013-02-04 23:51:00,
2013-02-04 18:56:00,34.2,34.2,29.00,WSW,242,2.2,3.6,100,0.00,,---,0.00,VWS V14.00,2013-02-04 23:56:00,
2013-02-04 19:01:00,34.2,34.2,29.00,SW,226,3.6,3.6,100,0.00,,---,0.00,VWS V14.00,2013-02-05 00:01:00,
2013-02-04 19:06:00,34.2,34.2,29.00,WSW,250,4.0,4.0,100,0.00,,---,0.00,VWS V14.00,2013-02-05 00:06:00,
2013-02-04 19:11:00,34.2,34.2,29.00,WSW,249,0.0,0.0,100,0.00,,---,0.00,VWS V14.00,2013-02-05 00:11:00,
2013-02-04 19:16:00,34.2,34.2,29.00,WSW,245,2.7,4.0,100,0.00,,---,0.00,VWS V14.00,2013-02-05 00:16:00,
2013-02-04 19:21:00,34.2,34.2,29.00,West,266,0.0,0.0,100,0.00,,---,0.00,VWS V14.00,2013-02-05 00:21:00,
2013-02-04 19:26:00,34.0,34.0,29.00,SW,236,0.0,0.0,100,0.00,,---,0.00,VWS V14.00,2013-02-05 00:26:00,
2013-02-04 19:31:00,34.0,34.0,29.00,SW,215,2.2,3.1,100,0.00,,---,0.00,VWS V14.00,2013-02-05 00:31:00,
2013-02-04 19:36:00,33.8,33.8,29.00,SSW,212,0.0,0.0,100,0.00,,---,0.00,VWS V14.00,2013-02-05 00:36:00,
2013-02-04 19:41:00,33.6,33.6,29.00,SW,219,0.0,0.0,100,0.00,,---,0.00,VWS V14.00,2013-02-05 00:41:00,
2013-02-04 19:46:00,33.4,33.4,29.00,SW,215,2.7,2.7,100,0.00,,---,0.00,VWS V14.00,2013-02-05 00:46:00,
2013-02-04 19:51:00,33.4,33.4,28.97,SSW,204,4.0,4.5,100,0.00,,---,0.00,VWS V14.00,2013-02-05 00:51:00,
2013-02-04 19:56:00,33.3,33.3,28.97,SSW,212,4.0,4.0,100,0.00,,---,0.00,VWS V14.00,2013-02-05 00:56:00,
2013-02-04 20:01:00,33.3,33.3,28.97,WSW,238,0.0,0.0,100,0.00,,---,0.00,VWS V14.00,2013-02-05 01:01:00,
2013-02-04 20:06:00,33.3,33.3,29.00,WSW,253,0.0,0.0,100,0.00,,---,0.00,VWS V14.00,2013-02-05 01:06:00,
2013-02-04 20:11:00,33.3,33.3,29.00,WSW,253,0.0,0.0,100,0.00,,---,0.00,VWS V14.00,2013-02-05 01:11:00,
2013-02-04 20:16:00,33.3,33.3,29.00,SW,214,3.6,3.6,100,0.00,,---,0.00,VWS V14.00,2013-02-05 01:16:00,
2013-02-04 20:21:00,33.4,33.4,29.00,SW,220,2.7,2.7,100,0.00,,---,0.00,VWS V14.00,2013-02-05 01:21:00,
2013-02-04 20:26:00,33.4,33.4,29.00,West,261,0.0,0.0,100,0.00,,---,0.00,VWS V14.00,2013-02-05 01:26:00,
2013-02-04 20:31:00,33.4,33.4,29.00,WSW,252,0.0,0.0,100,0.00,,---,0.00,VWS V14.00,2013-02-05 01:31:00,
2013-02-04 20:36:00,33.4,33.4,29.00,West,266,0.0,0.0,100,0.00,,---,0.00,VWS V14.00,2013-02-05 01:36:00,
2013-02-04 20:41:00,33.4,33.4,29.00,West,266,0.0,0.0,100,0.00,,---,0.00,VWS V14.00,2013-02-05 01:41:00,
2013-02-04 20:46:00,33.1,33.1,29.00,West,266,0.0,0.0,100,0.00,,---,0.00,VWS V14.00,2013-02-05 01:46:00,
2013-02-04 20:51:00,33.1,33.1,29.00,West,266,0.0,0.0,100,0.00,,---,0.00,VWS V14.00,2013-02-05 01:51:00,
2013-02-04 20:56:00,32.9,32.9,29.00,West,266,0.0,0.0,100,0.00,,---,0.00,VWS V14.00,2013-02-05 01:56:00,
2013-02-04 21:01:00,32.5,32.5,29.00,West,266,0.0,0.0,100,0.00,,---,0.00,VWS V14.00,2013-02-05 02:01:00,
2013-02-04 21:06:00,32.5,32.5,29.00,West,266,0.0,0.0,100,0.00,,---,0.00,VWS V14.00,2013-02-05 02:06:00,
2013-02-04 21:11:00,32.5,32.5,29.00,West,266,0.0,0.0,100,0.00,,---,0.00,VWS V14.00,2013-02-05 02:11:00,
2013-02-04 21:16:00,32.7,32.7,29.00,West,266,0.0,0.0,100,0.00,,---,0.00,VWS V14.00,2013-02-05 02:16:00,
2013-02-04 21:21:00,32.9,32.9,29.00,West,266,0.0,0.0,100,0.00,,---,0.00,VWS V14.00,2013-02-05 02:21:00,
2013-02-04 21:26:00,32.9,32.9,29.00,West,266,0.0,0.0,100,0.00,,---,0.00,VWS V14.00,2013-02-05 02:26:00,
2013-02-04 21:31:00,32.7,32.7,29.00,West,266,0.0,0.0,100,0.00,,---,0.00,VWS V14.00,2013-02-05 02:31:00,
2013-02-04 21:36:00,32.7,32.7,29.00,West,266,0.0,0.0,100,0.00,,---,0.00,VWS V14.00,2013-02-05 02:36:00,
2013-02-04 21:41:00,32.7,32.7,29.00,West,266,0.0,0.0,100,0.00,,---,0.00,VWS V14.00,2013-02-05 02:41:00,
2013-02-04 21:46:00,32.9,32.9,29.00,West,266,0.0,0.0,100,0.00,,---,0.00,VWS V14.00,2013-02-05 02:46:00,
2013-02-04 21:51:00,32.7,32.7,29.03,West,266,0.0,0.0,100,0.00,,---,0.00,VWS V14.00,2013-02-05 02:51:00,
2013-02-04 21:56:00,32.7,32.7,29.03,West,266,0.0,0.0,100,0.00,,---,0.00,VWS V14.00,2013-02-05 02:56:00,
2013-02-04 22:01:00,32.7,32.7,29.03,West,266,0.0,0.0,100,0.00,,---,0.00,VWS V14.00,2013-02-05 03:01:00,
2013-02-04 22:06:00,32.7,32.7,29.03,West,266,0.0,0.0,100,0.00,,---,0.00,VWS V14.00,2013-02-05 03:06:00,
2013-02-04 22:11:00,32.7,32.7,29.03,West,266,0.0,0.0,100,0.00,,---,0.00,VWS V14.00,2013-02-05 03:11:00,
2013-02-04 22:16:00,32.5,32.5,29.03,West,266,0.0,0.0,100,0.00,,---,0.00,VWS V14.00,2013-02-05 03:16:00,
2013-02-04 22:21:00,32.5,32.5,29.03,West,266,0.0,0.0,100,0.00,,---,0.00,VWS V14.00,2013-02-05 03:21:00,
2013-02-04 22:26:00,32.4,32.4,29.03,West,266,0.0,0.0,100,0.00,,---,0.00,VWS V14.00,2013-02-05 03:26:00,
2013-02-04 22:31:00,32.2,32.2,29.03,West,266,0.0,0.0,100,0.00,,---,0.00,VWS V14.00,2013-02-05 03:31:00,
2013-02-04 22:36:00,31.8,31.8,29.03,West,266,0.0,0.0,100,0.00,,---,0.00,VWS V14.00,2013-02-05 03:36:00,
2013-02-04 22:41:00,31.8,31.8,29.03,West,266,0.0,0.0,100,0.00,,---,0.00,VWS V14.00,2013-02-05 03:41:00,
2013-02-04 22:46:00,31.8,31.8,29.03,West,266,0.0,0.0,100,0.00,,---,0.00,VWS V14.00,2013-02-05 03:46:00,
2013-02-04 22:51:00,31.8,31.8,29.03,West,266,0.0,0.0,100,0.00,,---,0.00,VWS V14.00,2013-02-05 03:51:00,
2013-02-04 22:56:00,31.8,31.8,29.03,West,266,0.0,0.0,100,0.00,,---,0.00,VWS V14.00,2013-02-05 03:56:00,
2013-02-04 23:01:00,31.3,31.3,29.03,West,266,0.0,0.0,100,0.00,,---,0.00,VWS V14.00,2013-02-05 04:01:00,
2013-02-04 23:06:00,31.5,31.5,29.00,West,266,0.0,0.0,100,0.00,,---,0.00,VWS V14.00,2013-02-05 04:06:00,
2013-02-04 23:11:00,31.8,31.8,29.00,West,266,0.0,0.0,100,0.00,,---,0.00,VWS V14.00,2013-02-05 04:11:00,
2013-02-04 23:16:00,32.0,32.0,29.00,West,266,0.0,0.0,100,0.00,,---,0.00,VWS V14.00,2013-02-05 04:16:00,
2013-02-04 23:21:00,32.2,32.2,29.00,West,266,0.0,0.0,100,0.00,,---,0.00,VWS V14.00,2013-02-05 04:21:00,
2013-02-04 23:26:00,32.5,32.5,29.00,West,266,0.0,0.0,100,0.00,,---,0.00,VWS V14.00,2013-02-05 04:26:00,
2013-02-04 23:31:00,32.7,32.7,29.00,West,266,0.0,0.0,100,0.00,,---,0.00,VWS V14.00,2013-02-05 04:31:00,
2013-02-04 23:36:00,33.1,33.1,29.00,West,266,0.0,0.0,100,0.00,,---,0.00,VWS V14.00,2013-02-05 04:36:00,
2013-02-04 23:41:00,33.3,33.3,29.00,West,266,0.0,0.0,100,0.00,,---,0.00,VWS V14.00,2013-02-05 04:41:00,
2013-02-04 23:46:00,33.6,33.6,29.00,West,266,0.0,0.0,100,0.00,,---,0.00,VWS V14.00,2013-02-05 04:46:00,
2013-02-04 23:51:00,33.8,33.8,29.00,West,266,0.0,0.0,100,0.00,,---,0.00,VWS V14.00,2013-02-05 04:51:00,
2013-02-04 23:56:00,34.0,34.0,29.00,West,266,0.0,0.0,100,0.00,,---,0.00,VWS V14.00,2013-02-05 04:56:00,